• In Hungary
  • List of Countries
  • For 7 days
  • Water Temperature
  • Satellite Maps
  • Weather Map
  • News
  • Weather Widgets
  • user-avatar
    Login

    Hourly Weather Karymskoe

    Today, 16 October, Tuesday

    Time Temperature Precipitation Wind Pressure Humidity
    00:00 +1°C° 0 mm 0 mps 712 mmHg 63%
    01:00 +1°C° 0 mm 0 mps 712 mmHg 63%
    02:00 +1°C° 0 mm 0 mps 712 mmHg 63%
    03:00 +1°C° 0 mm 0 mps 712 mmHg 63%
    04:00 +1°C° 0 mm 0 mps 713 mmHg 63%
    05:00 0°C° 0 mm 0 mps 713 mmHg 63%
    06:00 +1°C° 0 mm 0 mps 713 mmHg 61%
    07:00 +1°C° 0 mm 0 mps 713 mmHg 59%
    08:00 +2°C° 0 mm 0 mps 713 mmHg 53%
    09:00 +4°C° 0 mm 0 mps 713 mmHg 48%
    10:00 +6°C° 0 mm 0 mps 713 mmHg 43%
    11:00 +8°C° 0 mm 0 mps 713 mmHg 38%
    12:00 +9°C° 0 mm 1 mps 712 mmHg 36%
    13:00 +10°C° 0 mm 1 mps 712 mmHg 35%
    14:00 +11°C° 0 mm 1 mps 712 mmHg 32%
    15:00 +10°C° 0 mm 1 mps 711 mmHg 36%
    16:00 +9°C° 0 mm 1 mps 711 mmHg 41%
    17:00 +7°C° 0 mm 1 mps 711 mmHg 45%
    18:00 +6°C° 0 mm 1 mps 711 mmHg 47%
    19:00 +5°C° 0 mm 1 mps 711 mmHg 50%
    20:00 +4°C° 0 mm 1 mps 711 mmHg 51%
    21:00 +4°C° 0 mm 1 mps 711 mmHg 53%
    22:00 +3°C° 0 mm 1 mps 711 mmHg 55%
    23:00 +3°C° 0 mm 1 mps 711 mmHg 56%

    Tomorrow, 17 October, Wednesday

    Time Temperature Precipitation Wind Pressure Humidity
    00:00 +2°C° 0 mm 0 mps 711 mmHg 58%
    01:00 +2°C° 0 mm 0 mps 711 mmHg 59%
    02:00 +1°C° 0 mm 0 mps 711 mmHg 61%
    03:00 +1°C° 0 mm 0 mps 711 mmHg 62%
    04:00 +1°C° 0 mm 0 mps 710 mmHg 64%
    05:00 +1°C° 0 mm 0 mps 710 mmHg 65%
    06:00 +1°C° 0 mm 0 mps 710 mmHg 64%
    07:00 +2°C° 0 mm 0 mps 711 mmHg 63%
    08:00 +2°C° 0 mm 0 mps 711 mmHg 63%
    09:00 +4°C° 0 mm 0 mps 710 mmHg 58%
    10:00 +7°C° 0 mm 1 mps 710 mmHg 53%
    11:00 +10°C° 0 mm 1 mps 710 mmHg 48%
    12:00 +10°C° 0 mm 1 mps 710 mmHg 47%
    13:00 +11°C° 0 mm 1 mps 709 mmHg 46%
    14:00 +12°C° 0 mm 1 mps 709 mmHg 45%
    15:00 +11°C° 0 mm 1 mps 709 mmHg 51%
    16:00 +9°C° 0 mm 0 mps 709 mmHg 56%
    17:00 +8°C° 0 mm 0 mps 709 mmHg 61%
    18:00 +7°C° 0 mm 0 mps 709 mmHg 65%
    19:00 +6°C° 0 mm 0 mps 709 mmHg 69%
    20:00 +5°C° 0 mm 0 mps 709 mmHg 73%
    21:00 +4°C° 0 mm 0 mps 710 mmHg 75%
    22:00 +4°C° 0 mm 0 mps 710 mmHg 77%
    23:00 +4°C° 0 mm 0 mps 710 mmHg 80%

    Day after tomorrow, 18 October, Thursday

    Time Temperature Precipitation Wind Pressure Humidity
    00:00 +3°C° 0 mm 0 mps 710 mmHg 81%
    01:00 +3°C° 0 mm 0 mps 710 mmHg 82%
    02:00 +4°C° 0 mm 1 mps 710 mmHg 83%
    03:00 +3°C° 0 mm 1 mps 710 mmHg 84%
    04:00 +3°C° 0 mm 1 mps 710 mmHg 85%
    05:00 +3°C° 0 mm 1 mps 710 mmHg 85%
    06:00 +3°C° 0 mm 1 mps 710 mmHg 83%
    07:00 +4°C° 0 mm 1 mps 710 mmHg 82%
    08:00 +4°C° 0 mm 1 mps 710 mmHg 80%
    09:00 +6°C° 0 mm 1 mps 710 mmHg 71%
    10:00 +9°C° 0 mm 1 mps 710 mmHg 61%
    11:00 +11°C° 0 mm 1 mps 710 mmHg 52%
    12:00 +12°C° 0 mm 2 mps 710 mmHg 49%
    13:00 +13°C° 0 mm 2 mps 709 mmHg 47%
    14:00 +14°C° 0 mm 2 mps 709 mmHg 44%
    15:00 +13°C° 0 mm 2 mps 709 mmHg 49%
    16:00 +12°C° 0 mm 1 mps 709 mmHg 53%
    17:00 +10°C° 0 mm 1 mps 709 mmHg 58%
    18:00 +9°C° 0 mm 1 mps 709 mmHg 61%
    19:00 +8°C° 0 mm 1 mps 709 mmHg 63%
    20:00 +8°C° 0 mm 1 mps 709 mmHg 66%
    21:00 +7°C° 0 mm 1 mps 709 mmHg 67%
    22:00 +7°C° 0 mm 1 mps 709 mmHg 68%
    23:00 +6°C° 0 mm 1 mps 709 mmHg 69%

    19 October, Friday

    Time Temperature Precipitation Wind Pressure Humidity
    00:00 +6°C° 0 mm 1 mps 709 mmHg 69%
    01:00 +5°C° 0 mm 1 mps 709 mmHg 69%
    02:00 +5°C° 0 mm 1 mps 709 mmHg 70%
    03:00 +5°C° 0 mm 1 mps 709 mmHg 70%
    04:00 +4°C° 0 mm 1 mps 709 mmHg 70%
    05:00 +4°C° 0 mm 1 mps 709 mmHg 70%
    06:00 +4°C° 0 mm 1 mps 709 mmHg 69%
    07:00 +5°C° 0 mm 1 mps 709 mmHg 67%
    08:00 +5°C° 0 mm 1 mps 709 mmHg 66%
    09:00 +7°C° 0 mm 1 mps 709 mmHg 58%
    10:00 +10°C° 0 mm 1 mps 709 mmHg 50%
    11:00 +12°C° 0 mm 1 mps 709 mmHg 43%
    12:00 +13°C° 0 mm 1 mps 708 mmHg 40%
    13:00 +14°C° 0 mm 2 mps 708 mmHg 38%
    14:00 +15°C° 0 mm 2 mps 707 mmHg 36%
    15:00 +14°C° 0 mm 2 mps 707 mmHg 41%
    16:00 +12°C° 0 mm 2 mps 707 mmHg 46%
    17:00 +10°C° 0 mm 2 mps 706 mmHg 51%
    18:00 +9°C° 0 mm 2 mps 707 mmHg 55%
    19:00 +8°C° 0 mm 1 mps 707 mmHg 59%
    20:00 +7°C° 0 mm 1 mps 707 mmHg 63%
    21:00 +7°C° 0 mm 1 mps 707 mmHg 65%
    22:00 +6°C° 0 mm 1 mps 707 mmHg 67%
    23:00 +5°C° 0 mm 1 mps 706 mmHg 68%

    20 October, Saturday

    Time Temperature Precipitation Wind Pressure Humidity
    00:00 +5°C° 0 mm 1 mps 706 mmHg 69%
    01:00 +4°C° 0 mm 1 mps 706 mmHg 69%
    02:00 +3°C° 0 mm 1 mps 706 mmHg 70%
    03:00 +3°C° 0 mm 1 mps 705 mmHg 70%
    04:00 +3°C° 0 mm 1 mps 705 mmHg 70%
    05:00 +2°C° 0 mm 1 mps 705 mmHg 70%
    06:00 +3°C° 0 mm 1 mps 705 mmHg 68%
    07:00 +3°C° 0 mm 1 mps 704 mmHg 66%
    08:00 +3°C° 0 mm 1 mps 704 mmHg 64%
    09:00 +5°C° 0 mm 1 mps 704 mmHg 58%
    10:00 +6°C° 0 mm 2 mps 703 mmHg 52%
    11:00 +8°C° 0 mm 2 mps 703 mmHg 46%
    12:00 +9°C° 0 mm 2 mps 702 mmHg 47%
    13:00 +9°C° 0 mm 2 mps 702 mmHg 49%
    14:00 +10°C° 0 mm 3 mps 701 mmHg 50%
    15:00 +9°C° 0.3 mm 2 mps 701 mmHg 58%
    16:00 +8°C° 0.3 mm 2 mps 701 mmHg 65%
    17:00 +7°C° 0.3 mm 2 mps 700 mmHg 72%
    18:00 +6°C° 1.4 mm 2 mps 700 mmHg 76%
    19:00 +6°C° 1.4 mm 2 mps 700 mmHg 81%
    20:00 +6°C° 1.4 mm 2 mps 700 mmHg 85%
    21:00 +5°C° 0.9 mm 2 mps 700 mmHg 85%
    22:00 +5°C° 0.9 mm 2 mps 700 mmHg 85%
    23:00 +5°C° 0.9 mm 2 mps 700 mmHg 85%

    21 October, Sunday

    Time Temperature Precipitation Wind Pressure Humidity
    00:00 +5°C° 0.1 mm 2 mps 700 mmHg 84%
    01:00 +5°C° 0.1 mm 2 mps 701 mmHg 84%
    02:00 +5°C° 0.1 mm 2 mps 701 mmHg 83%
    03:00 +4°C° 0.1 mm 2 mps 701 mmHg 84%
    04:00 +4°C° 0.1 mm 2 mps 701 mmHg 85%
    05:00 +5°C° 0.1 mm 1 mps 701 mmHg 85%
    06:00 +4°C° 0 mm 1 mps 701 mmHg 85%
    07:00 +4°C° 0 mm 1 mps 702 mmHg 85%
    08:00 +4°C° 0 mm 1 mps 702 mmHg 84%
    09:00 +6°C° 0 mm 1 mps 702 mmHg 77%
    10:00 +7°C° 0 mm 1 mps 702 mmHg 70%
    11:00 +7°C° 0 mm 2 mps 701 mmHg 63%
    12:00 +9°C° 0 mm 1 mps 701 mmHg 62%
    13:00 +9°C° 0 mm 1 mps 701 mmHg 60%
    14:00 +10°C° 0 mm 1 mps 700 mmHg 58%
    15:00 +9°C° 0.1 mm 1 mps 700 mmHg 63%
    16:00 +8°C° 0.1 mm 1 mps 700 mmHg 68%
    17:00 +7°C° 0.1 mm 0 mps 700 mmHg 73%
    18:00 +7°C° 0.5 mm 1 mps 700 mmHg 76%
    19:00 +7°C° 0.5 mm 1 mps 700 mmHg 79%
    20:00 +6°C° 0.5 mm 1 mps 700 mmHg 82%
    21:00 +6°C° 0.7 mm 1 mps 700 mmHg 84%
    22:00 +6°C° 0.7 mm 1 mps 700 mmHg 86%
    23:00 +5°C° 0.7 mm 2 mps 700 mmHg 87%
    Show more